Weather History for KLBE - March, 2014

Change the Weather History Date:

Saturday, March 29, 2014

  Actual Average Record
Temperature  
Mean Temperature 45 °F -  
Max Temperature 57 °F 54 °F 80 °F (1998)
Min Temperature 33 °F 34 °F 12 °F (2015)
Degree Days  
Heating Degree Days 20    
Moisture  
Dew Point 43 °F    
Average Humidity 91    
Maximum Humidity 100    
Minimum Humidity 67    
Precipitation  
Precipitation 0.00 in - - ()
Sea Level Pressure  
Sea Level Pressure 29.84 in    
Wind  
Wind Speed 9 mph (NE)    
Max Wind Speed 14 mph    
Max Gust Speed 23 mph    
Visibility 8 miles    
Events Rain    
Averages and records for this station are not official NWS values.
T = Trace of Precipitation, MM = Missing Value Source: NWS Daily Summary

Daily Weather History Graph

Daily Weather History Graph

Search for Another Location

Airport or City:

Trip Planner

Search our weather history database for the weather conditions in past years. The results will help you decide how hot, cold, wet, or windy it might be!

Date:

Astronomy

Mar. 29, 2014 Rise Set
Actual Time 7:06 AM EDT 7:39 PM EDT
Civil Twilight 6:39 AM EDT 8:06 PM EDT
Nautical Twilight 6:06 AM EDT 8:38 PM EDT
Astronomical Twilight 5:33 AM EDT 9:11 PM EDT
Moon 6:14 AM EDT (3/29) 6:42 PM EDT (3/29)
Length of Visible Light 13h 27m
Length of Day
12h 32m
Waning Crescent, 2% of the Moon is Illuminated
Mar 29
Waning Crescent
Mar 30
New
Apr 7
First Quarter
Apr 15
Full
Apr 22
Last Quarter

Hourly Weather History & Observations

Time (EDT) Temp. Windchill Dew Point Humidity Pressure Visibility Wind Dir Wind Speed Gust Speed Precip Events Conditions
5:50 AM 33.8 °F 26.4 °F 33.8 °F 100% 30.06 in 6.0 mi NNE 9.2 mph - N/A   Scattered Clouds
6:50 AM 33.8 °F 26.4 °F 33.8 °F 100% 30.06 in 6.0 mi NE 9.2 mph - N/A   Mostly Cloudy
7:50 AM 35.6 °F 28.6 °F 35.6 °F 100% 30.05 in 6.0 mi ENE 9.2 mph - N/A   Mostly Cloudy
8:50 AM 37.4 °F 29.8 °F 37.4 °F 100% 30.02 in 10.0 mi NE 11.5 mph - N/A   Mostly Cloudy
9:50 AM 44.6 °F 40.7 °F 41.0 °F 87% 29.99 in 10.0 mi NE 6.9 mph - N/A   Mostly Cloudy
10:50 AM 53.6 °F - 42.8 °F 67% 29.97 in 10.0 mi East 11.5 mph - N/A   Mostly Cloudy
11:50 AM 57.2 °F - 46.4 °F 67% 29.95 in 15.0 mi East 11.5 mph - N/A   Mostly Cloudy
12:50 PM 57.2 °F - 46.4 °F 67% 29.90 in 15.0 mi East 9.2 mph - N/A   Mostly Cloudy
1:50 PM 57.2 °F - 48.2 °F 72% 29.84 in 15.0 mi ENE 6.9 mph - N/A   Overcast
2:50 PM 53.6 °F - 48.2 °F 82% 29.80 in 6.0 mi ESE 6.9 mph - N/A Rain Light Rain
3:45 PM 51.8 °F - 48.2 °F 88% 29.78 in 5.0 mi East 13.8 mph - N/A Rain Light Rain
4:45 PM 48.2 °F - 48.2 °F 100% 29.74 in 3.0 mi ENE 11.5 mph 23.0 mph N/A Rain Light Rain
5:45 PM 48.2 °F - 46.4 °F 93% 29.72 in 3.0 mi ENE 12.7 mph - N/A Rain Light Rain
6:45 PM 46.4 °F 43.5 °F 46.4 °F 100% 29.70 in 3.0 mi North 5.8 mph - N/A Rain Light Rain
7:36 PM 44.6 °F 40.2 °F 44.6 °F 100% 29.69 in 4.0 mi NNE 8.1 mph - N/A Rain Light Rain
7:47 PM 44.6 °F 40.2 °F 44.6 °F 100% 29.68 in 4.0 mi North 8.1 mph - N/A Rain Light Rain
8:07 PM 44.6 °F 41.4 °F 44.6 °F 100% 29.69 in 5.0 mi North 5.8 mph - N/A   Light Drizzle
8:25 PM 44.6 °F 40.7 °F 44.6 °F 100% 29.69 in 10.0 mi NNW 6.9 mph - N/A   Overcast
8:45 PM 44.6 °F 40.2 °F 44.6 °F 100% 29.70 in 10.0 mi North 8.1 mph - N/A   Overcast
9:45 PM 42.8 °F 36.6 °F 42.8 °F 100% 29.70 in 6.0 mi North 11.5 mph - N/A   Overcast